Date String (YYYY-MM-DD hh:mm:ss) UTC,Instrument flags,absolute air pressure of the measurement (hPa),sample flow rate (lpm),inlet stack bypass flow (lpm),air temperature of the measurement (°C),ambient temperature measured by the external sensor (°C),aerosol sample conditioner tube jacket temperature (°C),OPC LED temperature (°C),internal box temperature (°C),relative humidity of the measurement (%),span deviation,mass concentration of particles derived from Lorenz-Mie calculation of OPC scattering (μg/m³),mass concentration of particles derived from Lorenz-Mie calculation of OPC scattering (μg/m³),mass concentration of particles derived from Lorenz-Mie calculation of OPC scattering (μg/m³)
DateTimeUTC,F1_M11,P_M11,Q1_M11,Q2_M11,T1_M11,T2_M11,T3_M11,T4_M11,T5_M11,U1_M11,ZSPAN_M11,X2_M11,X0_M11,X1_M11
2023-12-23 15:00:00,SystemResetWarning,0820.2,5.00,000.00,023.6,022.7,000.0,031.9,025.0,12.5,0000.0,0001.62,0002.67,0001.40
2023-12-23 15:01:00,SystemResetWarning,0820.3,5.00,000.00,023.6,022.7,000.0,031.9,025.0,12.6,0000.0,0001.62,0002.52,0001.39
2023-12-23 15:02:00,SystemResetWarning,0820.3,5.00,000.00,023.6,022.7,000.0,031.9,025.0,12.5,0000.0,0001.60,0003.13,0001.38
2023-12-23 15:03:00,SystemResetWarning,0820.3,5.00,000.00,023.6,022.7,000.0,031.9,025.0,12.5,0000.0,0001.57,0002.99,0001.37
2023-12-23 15:04:00,SystemResetWarning,0820.4,5.00,000.00,023.6,022.7,000.0,031.9,025.0,12.5,0000.0,0001.57,0003.00,0001.37
2023-12-23 15:05:00,SystemResetWarning,0820.3,5.00,000.00,023.6,022.7,000.0,031.9,025.0,12.5,0000.0,0001.63,0003.12,0001.39
2023-12-23 15:06:00,SystemResetWarning,0820.3,5.00,000.00,023.6,022.7,000.0,031.9,025.0,12.6,0000.0,0001.66,0002.91,0001.40
2023-12-23 15:07:00,SystemResetWarning,0820.3,5.00,000.00,023.6,022.7,000.0,031.9,025.0,12.6,0000.0,0001.77,0003.15,0001.47
2023-12-23 15:08:00,SystemResetWarning,0820.4,4.99,000.00,023.6,022.7,000.0,031.9,024.9,12.5,0000.0,0001.89,0003.32,0001.56
2023-12-23 15:09:00,SystemResetWarning,0820.3,5.00,000.00,023.6,022.7,000.0,031.9,024.9,12.4,0000.0,0001.99,0003.46,0001.62
2023-12-23 15:10:00,SystemResetWarning,0820.3,5.00,000.00,023.6,022.7,000.0,031.9,024.9,12.4,0000.0,0002.06,0003.61,0001.69
2023-12-23 15:11:00,SystemResetWarning,0820.3,5.00,000.00,023.6,022.7,000.0,031.9,024.9,12.4,0000.0,0002.13,0003.79,0001.77
2023-12-23 15:12:00,SystemResetWarning,0820.3,5.00,000.00,023.6,022.7,000.0,031.9,024.9,12.4,0000.0,0002.25,0003.97,0001.85
2023-12-23 15:13:00,SystemResetWarning,0820.3,5.01,000.00,023.6,022.7,000.0,031.9,025.0,12.8,0000.0,0002.40,0003.54,0001.93
2023-12-23 15:14:00,SystemResetWarning,0820.4,5.00,000.00,023.6,022.7,000.0,031.9,024.9,12.8,0000.0,0002.52,0003.71,0002.02
2023-12-23 15:15:00,SystemResetWarning,0820.7,5.00,000.00,023.5,022.7,000.0,031.9,024.9,12.8,0000.0,0002.59,0003.80,0002.08
2023-12-23 15:16:00,SystemResetWarning,0820.7,5.00,000.00,023.5,022.7,000.0,031.9,024.9,13.0,0000.0,0002.60,0003.77,0002.12
2023-12-23 15:17:00,SystemResetWarning,0821.0,5.00,000.00,023.5,022.7,000.0,031.9,024.9,12.9,0000.0,0002.57,0003.71,0002.15
2023-12-23 15:18:00,SystemResetWarning,0820.9,5.00,000.00,023.5,022.7,000.0,031.9,024.8,13.0,0000.0,0002.53,0003.62,0002.15
2023-12-23 15:19:00,SystemResetWarning,0820.9,4.99,000.00,023.5,022.6,000.0,031.9,024.8,12.8,0000.0,0002.49,0003.53,0002.12
2023-12-23 15:20:00,SystemResetWarning,0820.6,5.00,000.00,023.5,022.6,000.0,031.9,024.8,12.9,0000.0,0002.53,0003.69,0002.16
2023-12-23 15:21:00,SystemResetWarning,0820.6,5.00,000.00,023.5,022.6,000.0,031.9,024.8,13.3,0000.0,0002.60,0003.81,0002.21
2023-12-23 15:22:00,SystemResetWarning,0820.6,5.01,000.00,023.5,022.6,000.0,031.9,024.8,13.5,0000.0,0002.69,0003.84,0002.28
2023-12-23 15:23:00,SystemResetWarning,0820.5,5.01,000.00,023.4,022.6,000.0,031.8,024.8,13.7,0000.0,0002.77,0003.96,0002.35
2023-12-23 15:24:00,SystemResetWarning,0820.6,5.01,000.00,023.4,022.6,000.0,031.8,024.8,13.8,0000.0,0002.84,0004.14,0002.43
2023-12-23 15:25:00,SystemResetWarning,0820.6,5.00,000.00,023.4,022.6,000.0,031.8,024.7,13.9,0000.0,0002.96,0004.36,0002.55
2023-12-23 15:26:00,SystemResetWarning,0820.6,5.00,000.00,023.4,022.6,000.0,031.8,024.7,13.9,0000.0,0003.14,0004.82,0002.71
2023-12-23 15:27:00,SystemResetWarning,0820.5,4.99,000.00,023.4,022.6,000.0,031.8,024.7,13.7,0000.0,0003.23,0005.06,0002.87
2023-12-23 15:28:00,SystemResetWarning,0820.6,4.99,000.00,023.4,022.6,000.0,031.8,024.7,13.7,0000.0,0003.32,0005.31,0003.01
2023-12-23 15:29:00,SystemResetWarning,0820.7,4.99,000.00,023.4,022.5,000.0,031.8,024.7,13.7,0000.0,0003.41,0005.66,0003.12
2023-12-23 15:30:00,SystemResetWarning,0820.6,5.00,000.00,023.4,022.5,000.0,031.8,024.7,13.6,0000.0,0003.47,0005.98,0003.18
2023-12-23 15:31:00,SystemResetWarning,0820.5,5.00,000.00,023.4,022.5,000.0,031.8,024.7,13.6,0000.0,0003.54,0006.44,0003.24
2023-12-23 15:32:00,SystemResetWarning,0820.5,5.00,000.00,023.4,022.5,000.0,031.8,024.7,13.6,0000.0,0003.60,0006.41,0003.31
2023-12-23 15:33:00,SystemResetWarning,0820.5,5.00,000.00,023.4,022.5,000.0,031.8,024.6,13.8,0000.0,0003.66,0006.49,0003.37
2023-12-23 15:34:00,SystemResetWarning,0820.6,5.00,000.00,023.3,022.5,000.0,031.8,024.6,14.1,0000.0,0003.77,0006.85,0003.46
2023-12-23 15:35:00,SystemResetWarning,0820.5,5.00,000.00,023.3,022.5,000.0,031.8,024.6,14.1,0000.0,0003.86,0007.41,0003.54
2023-12-23 15:36:00,SystemResetWarning,0820.6,5.00,000.00,023.3,022.5,000.0,031.8,024.6,14.2,0000.0,0003.93,0007.65,0003.58
2023-12-23 15:37:00,SystemResetWarning,0820.6,5.00,000.00,023.3,022.5,000.0,031.7,024.6,14.3,0000.0,0003.94,0007.92,0003.63
2023-12-23 15:38:00,SystemResetWarning,0820.6,5.00,000.00,023.3,022.5,000.0,031.7,024.6,14.4,0000.0,0004.02,0008.74,0003.71
2023-12-23 15:39:00,SystemResetWarning,0820.6,5.00,000.00,023.3,022.5,000.0,031.7,024.6,14.6,0000.0,0004.13,0008.86,0003.81
2023-12-23 15:40:00,SystemResetWarning,0820.6,4.99,000.00,023.3,022.5,000.0,031.7,024.6,14.4,0000.0,0004.23,0008.87,0003.91
2023-12-23 15:41:00,SystemResetWarning,0820.6,5.00,000.00,023.3,022.5,000.0,031.7,024.6,14.4,0000.0,0004.32,0009.01,0003.98
2023-12-23 15:42:00,SystemResetWarning,0820.6,4.99,000.00,023.3,022.5,000.0,031.7,024.6,14.3,0000.0,0004.39,0008.82,0004.05
2023-12-23 15:43:00,SystemResetWarning,0820.6,5.01,000.00,023.3,022.5,000.0,031.7,024.6,14.2,0000.0,0004.47,0008.96,0004.12
2023-12-23 15:44:00,SystemResetWarning,0820.6,5.01,000.00,023.3,022.5,000.0,031.7,024.6,14.3,0000.0,0004.51,0009.06,0004.15
2023-12-23 15:45:00,SystemResetWarning,0820.6,5.00,000.00,023.3,022.5,000.0,031.7,024.6,14.2,0000.0,0004.51,0008.99,0004.17
2023-12-23 15:46:00,SystemResetWarning,0820.6,5.00,000.00,023.3,022.5,000.0,031.7,024.6,14.1,0000.0,0004.50,0008.80,0004.18
2023-12-23 15:47:00,SystemResetWarning,0820.6,4.99,000.00,023.3,022.5,000.0,031.7,024.6,14.0,0000.0,0004.52,0008.53,0004.23
2023-12-23 15:48:00,SystemResetWarning,0820.6,5.00,000.00,023.3,022.5,000.0,031.7,024.6,14.3,0000.0,0004.57,0008.72,0004.26
2023-12-23 15:49:00,SystemResetWarning,0820.6,5.00,000.00,023.3,022.5,000.0,031.7,024.6,14.3,0000.0,0004.60,0008.76,0004.26
2023-12-23 15:50:00,SystemResetWarning,0820.6,5.00,000.00,023.3,022.5,000.0,031.7,024.7,14.4,0000.0,0004.61,0009.29,0004.25
2023-12-23 15:51:00,SystemResetWarning,0820.6,5.00,000.00,023.3,022.5,000.0,031.7,024.7,14.2,0000.0,0004.63,0010.75,0004.25
2023-12-23 15:52:00,SystemResetWarning,0820.5,5.00,000.00,023.3,022.5,000.0,031.7,024.6,14.2,0000.0,0004.63,0011.08,0004.24
2023-12-23 15:53:00,SystemResetWarning,0820.5,5.00,000.00,023.3,022.5,000.0,031.7,024.6,14.3,0000.0,0004.62,0012.13,0004.23
2023-12-23 15:54:00,SystemResetWarning,0820.5,5.00,000.00,023.3,022.4,000.0,031.7,024.6,14.4,0000.0,0004.63,0012.57,0004.24
2023-12-23 15:55:00,SystemResetWarning,0820.5,5.00,000.00,023.3,022.4,000.0,031.7,024.7,14.4,0000.0,0004.66,0012.64,0004.27
2023-12-23 15:56:00,SystemResetWarning,0820.6,5.00,000.00,023.3,022.5,000.0,031.7,024.7,14.4,0000.0,0004.73,0013.32,0004.29
2023-12-23 15:57:00,SystemResetWarning,0820.5,5.00,000.00,023.3,022.5,000.0,031.7,024.7,14.3,0000.0,0004.79,0013.33,0004.32
2023-12-23 15:58:00,SystemResetWarning,0820.6,5.00,000.00,023.3,022.5,000.0,031.6,024.8,14.2,0000.0,0004.83,0013.44,0004.33
2023-12-23 15:59:00,SystemResetWarning,0820.6,5.00,000.00,023.3,022.5,000.0,031.6,024.8,14.2,0000.0,0004.86,0013.30,0004.37
